CZ-6A DEB, 61814

Orbit data source: Space-Track

CZ-6A DEB, 61814 is space debris in LEO originally from a launch on Tue, 06 Aug 2024 UTC launched from the Taiyaun Space Center, China (TSC). Debris objects in space refer to the collection of defunct objects orbiting the Earth. Examples of debris include non-operational satellites, rocket bodies, and fragments generated from explosions, collisions, or faulty payload assembly.

Loading next visibility...
Identifier
61814, 2024-140ACE
Orbit
LEO
Country
Flag of CNCN / PRC
Related business
Manufacturer
SAST
Mission
Spacecraft
Bus & Motor
Unknown
Mass
Unknown
Launch date (UTC)
2024-08-06 (2 years ago)
Launch vehicle
Unknown
Launch site
Taiyaun Space Center, China (TSC)
Object type
Payload
Rocket body
Debris
Shape & HBR
Unknown shape, 0.1 m
Radar Cross Section
Medium (>0.1 m² and <1 m²)

Expand to show TLE details & history
Last TLE update: 11 hours ago

TLE from 11 hours ago
0 CZ-6A DEB
1 61814U 24140ACE 26171.39744115  .00009881  00000-0  21303-2 0  9999
2 61814  89.4866 311.7652 0045201 226.6400 133.1042 14.57719400 92823
Epoch: 2026-06-20T09:32Z
TLE epoch observation values (Epoch: 2026-06-20T09:32:18.915Z)
Latitude
-0.00004°
Longitude
-99.92626°
Altitude
725.601 km
Speed
7.481 km/s
True Right ascension
20h 47m 03s
True Declination
0° 00' 00"
Sunlit
Object was in full shadow at epoch
Visualization orbit readout
Latitude
Unknown
Longitude
Unknown
Altitude
Unknown
Speed
Unknown
Apparent Right ascension
Unknown
Apparent Declination
Unknown
Sunlit
N/A
Visualization observer readout
Local Sidereal Time
07:21:54
Azimuth
Unknown
Elevation
Unknown
Doppler factor
Unknown
Orbital elements
Apogee altitude
729.425 km
Perigee altitude
665.46 km
Semi-major axis
7,075.58 km
Eccentricity
0.00452
Inclination
89.4866°
RAAN
311.7652°
Arg. of periapsis
226.64°
True anomaly
133.48092°
Mean anomaly
133.1042°
Eccentric anomaly
133.2927°
Mean motion
3.6467 °/min
Orbital period
98.72 mins
BSTAR
0.0021303
Loading maneuver chart data...
Computing Atmospheric mass density...
Loading historical data...
Loading historical data...
Loading historical data...
Loading historical data...
Loading historical data...
Loading historical data...
Loading historical data...

Documentation

Showing up to 5 results
|